FREGAT R/B, 40297

Orbit data source: Space-Track

FREGAT R/B, 40297 is space debris in HEO originally from a launch on Thu, 30 Oct 2014 UTC launched from the Plesetsk Missile And Space Complex (PKMTR). Debris objects in space refer to the collection of defunct objects orbiting the Earth. Examples of debris include non-operational satellites, rocket bodies, and fragments generated from explosions, collisions, or faulty payload assembly.

Loading next visibility...
Identifier
40297, 2014-069B
Orbit
HEO
Last TLE update
1 day ago
Origin
Manufacturer
Lavochkin
Mission
Spacecraft
Bus & Motor
FREGAT, Unknown motor
Mass
1,000 kg wet, 1,000 kg dry
Launch date (UTC)
2014-10-30 (11 years ago)
Launch vehicle
Unknown
Launch site
Plesetsk Missile And Space Complex (PKMTR)
Object type
Payload
Rocket body
Debris
Shape & HBR
Irr, 3.3 m
Radar Cross Section
11.055 m², Large (>1 m²)

Expand to show TLE details & history

TLE from 1 day ago
0 FREGAT R/B
1 40297U 14069B   25185.57643982 -.00001052  00000-0  00000-0 0  9996
2 40297  63.7215 240.4545 6782484 272.5825  17.8533  2.00733423 78244
Epoch: 2025-07-04T13:50Z
TLE epoch observation values (Epoch: 2025-07-04T13:50:04.4Z)
Latitude
-0.00013°
Longitude
110.13013°
Altitude
7,565.884 km
Speed
6.493 km/s
True Right ascension
16h 01m 54s
True Declination
0° 00' 00"
Sunlit
Object was in daylight at epoch
Visualization orbit readout
Latitude
63.45517°
Longitude
-150.94724°
Altitude
38,131.953 km
Speed
1.703 km/s
Apparent Right ascension
22h 00m 10s
Apparent Declination
56° 52' 18"
Sunlit
Object is in daylight
Visualization observer readout
Local Sidereal Time
07:14:53
Azimuth
338.276° N
Elevation
12.859°
Doppler factor
1
Orbital elements
Apogee altitude
38,170.163 km
Perigee altitude
2,162.605 km
Semi-major axis
26,544.521 km
Eccentricity
0.67825
Inclination
63.7215°
RAAN
240.4545°
Arg. of periapsis
272.5825°
True anomaly
Unknown
Mean anomaly
17.8533°
Eccentric anomaly
Unknown
Mean motion
0.50186 °/min
Orbital period
717.33 mins
BSTAR
0
Loading maneuver chart data...
Loading SW <> Apogee altitude chart data...
Loading historical data...
Loading historical data...
Loading historical data...
Loading historical data...
Loading historical data...
Loading historical data...
Loading historical data...
Other satellites on launch #69 in the year 2014 (2014-10-30 UTC)

FREGAT R/B Visibility forecast

Observer location: undefined°, undefined°

Span
Click to sort rows by Start time (UTC) header in descending order
Start Az.
Max El. time (UTC)
Max El. Az.
Max El.
End time (UTC)
End Az.
83 mins2025-07-05 19:19:12.891Z338.271° N2025-07-05 19:19:12.891Z338.271° N12.544°2025-07-05 20:42:12.891Z335.08° NNW
634 mins2025-07-06 01:42:12.891Z131.837° SE2025-07-06 03:53:12.891Z51.258° ENE37.951°2025-07-06 12:16:12.891Z109.564° ESE
105 mins2025-07-06 17:34:12.891Z339.139° N2025-07-06 19:09:12.891Z338.32° N12.613°2025-07-06 19:19:12.891Z338.045° N
|